Weather History for Moriarty, NM

Change the Weather History Date:

Tuesday, October 15, 2013

  Actual Average (KABQ) Record (KABQ)
Temperature  
Mean Temperature 39 °F 58 °F  
Max Temperature 56 °F 69 °F 85 °F (1909)
Min Temperature 22 °F 47 °F 29 °F (1914)
Degree Days  
Heating Degree Days 26 7  
Month to date heating degree days 74  
Since 1 July heating degree days 100  
Cooling Degree Days 0 0  
Month to date cooling degree days 7  
Year to date cooling degree days 1319  
Moisture  
Dew Point 24 °F    
Average Humidity 51    
Maximum Humidity 78    
Minimum Humidity 32    
Precipitation  
Precipitation 0.00 in 0.03 in 1.30 in (1960)
Month to date precipitation 0.57  
Year to date precipitation 7.93  
Snow  
Snow 0.00 in - - ()
Month to date snowfall  
Since 1 July snowfall  
Since 1 September snowfall  
Snow Depth -    
Sea Level Pressure  
Sea Level Pressure 30.16 in    
Wind  
Wind Speed 8 mph (ESE)    
Max Wind Speed 22 mph    
Max Gust Speed 28 mph    
Visibility 10 miles    
Events Rain    
T = Trace of Precipitation, MM = Missing Value Source: NWS Daily Summary

Daily Weather History Graph

Daily Weather History Graph

Search for Another Location

Airport:

Trip Planner

Search our weather history database for the weather conditions in past years. The results will help you decide how hot, cold, wet, or windy it might be!

Date:

Astronomy

Oct. 15, 2013 Rise Set
Actual Time 7:10 AM MDT 6:28 PM MDT
Civil Twilight 6:44 AM MDT 6:54 PM MDT
Nautical Twilight 6:15 AM MDT 7:23 PM MDT
Astronomical Twilight 5:45 AM MDT 7:52 PM MDT
Moon 4:29 PM MDT (10/15) 3:43 AM MDT (10/15)
Length of Visible Light 12h 09m
Length of Day
11h 18m
Waxing Gibbous, 88% of the Moon is Illuminated
Oct 15
Waxing Gibbous
Oct 18
Full
Oct 26
Last Quarter
Nov 3
New
Nov 9
First Quarter

Hourly Weather History & Observations

Time (MDT) Temp. Windchill Dew Point Humidity Pressure Visibility Wind Dir Wind Speed Gust Speed Precip Events Conditions
12:15 AM 33.8 °F 29.6 °F 15.8 °F 48% 30.15 in 10.0 mi NNW 4.6 mph - N/A   Clear
12:35 AM 32.5 °F 25.5 °F 16.7 °F 52% 30.15 in 10.0 mi NW 8.1 mph - N/A   Clear
12:55 AM 34.0 °F 29.8 °F 17.6 °F 51% 30.15 in 10.0 mi SE 4.6 mph - N/A   Clear
1:15 AM 35.1 °F - 17.1 °F 48% 30.15 in 10.0 mi Calm Calm - N/A   Clear
1:35 AM 33.6 °F - 16.7 °F 50% 30.16 in 10.0 mi Calm Calm - N/A   Clear
1:55 AM 33.1 °F - 16.7 °F 51% 30.17 in 10.0 mi Calm Calm - N/A   Clear
2:15 AM 29.7 °F - 16.3 °F 58% 30.17 in 10.0 mi Calm Calm - N/A   Clear
2:35 AM 32.5 °F - 17.4 °F 54% 30.17 in 10.0 mi Calm Calm - N/A   Clear
2:55 AM 27.7 °F - 16.2 °F 62% 30.17 in 10.0 mi Calm Calm - N/A   Clear
3:15 AM 28.2 °F - 16.3 °F 61% 30.17 in 10.0 mi Calm Calm - N/A   Clear
3:35 AM 26.8 °F - 16.2 °F 64% 30.17 in 10.0 mi Calm Calm - N/A   Clear
3:55 AM 27.0 °F 23.0 °F 16.7 °F 65% 30.16 in 10.0 mi NW 3.5 mph - N/A   Clear
4:15 AM 25.5 °F 18.7 °F 16.5 °F 69% 30.16 in 10.0 mi NW 5.8 mph - N/A   Clear
4:35 AM 22.8 °F 16.7 °F 14.7 °F 71% 30.16 in 10.0 mi North 4.6 mph - N/A   Clear
4:55 AM 22.5 °F 15.1 °F 15.6 °F 75% 30.16 in 10.0 mi NE 5.8 mph - N/A   Clear
5:15 AM 23.7 °F 17.8 °F 15.4 °F 71% 30.17 in 10.0 mi ENE 4.6 mph - N/A   Clear
5:35 AM 22.8 °F 16.7 °F 15.4 °F 73% 30.17 in 10.0 mi ENE 4.6 mph - N/A   Clear
5:55 AM 25.7 °F 20.1 °F 16.5 °F 68% 30.18 in 10.0 mi East 4.6 mph - N/A   Clear
6:15 AM 26.6 °F 22.6 °F 16.2 °F 65% 30.18 in 10.0 mi ENE 3.5 mph - N/A   Clear
6:35 AM 23.9 °F - 15.8 °F 71% 30.17 in 10.0 mi Calm Calm - N/A   Clear
6:55 AM 24.3 °F - 15.8 °F 70% 30.19 in 10.0 mi Calm Calm - N/A   Clear
7:15 AM 25.5 °F 19.9 °F 18.5 °F 75% 30.19 in 10.0 mi South 4.6 mph - N/A   Clear
7:35 AM 24.3 °F 18.4 °F 18.3 °F 78% 30.20 in 10.0 mi SW 4.6 mph - N/A   Clear
7:55 AM 29.5 °F 25.9 °F 20.5 °F 69% 30.21 in 10.0 mi NW 3.5 mph - N/A   Clear
8:15 AM 35.1 °F - 21.6 °F 58% 30.22 in 10.0 mi Calm Calm - N/A   Clear
8:35 AM 37.9 °F 35.5 °F 23.2 °F 55% 30.22 in 10.0 mi SSW 3.5 mph - N/A   Clear
8:55 AM 41.2 °F 37.3 °F 27.0 °F 57% 30.23 in 10.0 mi South 5.8 mph - N/A   Clear
9:15 AM 43.3 °F 39.9 °F 29.8 °F 59% 30.23 in 10.0 mi South 5.8 mph - N/A   Clear
9:35 AM 45.7 °F 40.6 °F 30.6 °F 56% 30.23 in 10.0 mi SE 10.4 mph - N/A   Clear
9:55 AM 48.0 °F - 30.2 °F 50% 30.23 in 10.0 mi ESE 10.4 mph - N/A   Clear
10:15 AM 48.7 °F - 29.5 °F 47% 30.23 in 10.0 mi ESE 10.4 mph 17.3 mph N/A   Clear
10:35 AM 49.3 °F - 29.1 °F 46% 30.22 in 10.0 mi SE 12.7 mph 17.3 mph N/A   Clear
10:55 AM 50.5 °F - 28.4 °F 42% 30.21 in 10.0 mi SE 12.7 mph 23.0 mph N/A   Clear
11:15 AM 51.6 °F - 28.4 °F 41% 30.21 in 10.0 mi SE 13.8 mph 19.6 mph N/A   Clear
11:35 AM 52.2 °F - 27.5 °F 39% 30.20 in 10.0 mi SE 16.1 mph 20.7 mph N/A   Clear
11:55 AM 53.1 °F - 27.7 °F 38% 30.19 in 10.0 mi SSE 15.0 mph 18.4 mph N/A   Clear
12:15 PM 53.6 °F - 28.2 °F 38% 30.18 in 10.0 mi SE 15.0 mph 21.9 mph N/A   Clear
12:35 PM 53.8 °F - 28.6 °F 38% 30.16 in 10.0 mi SSE 12.7 mph 20.7 mph N/A   Clear
12:55 PM 54.7 °F - 28.4 °F 36% 30.16 in 10.0 mi SSE 16.1 mph 20.7 mph N/A   Clear
1:15 PM 54.9 °F - 27.5 °F 35% 30.15 in 10.0 mi SSE 16.1 mph 25.3 mph N/A   Clear
1:35 PM 55.4 °F - 27.3 °F 34% 30.14 in 10.0 mi SE 18.4 mph 24.2 mph N/A   Clear
1:55 PM 55.9 °F - 27.5 °F 34% 30.13 in 10.0 mi SE 16.1 mph 20.7 mph N/A   Clear
2:15 PM 55.4 °F - 27.3 °F 34% 30.12 in 10.0 mi SE 12.7 mph 20.7 mph N/A   Clear
2:35 PM 55.9 °F - 27.3 °F 33% 30.11 in 10.0 mi ESE 15.0 mph 24.2 mph N/A   Clear
2:55 PM 55.9 °F - 27.0 °F 33% 30.11 in 10.0 mi SE 15.0 mph 24.2 mph N/A   Clear
3:15 PM 55.8 °F - 26.4 °F 32% 30.11 in 10.0 mi SE 13.8 mph 20.7 mph N/A   Clear
3:35 PM 56.5 °F - 26.6 °F 32% 30.11 in 10.0 mi SE 18.4 mph 21.9 mph N/A   Scattered Clouds
3:55 PM 56.1 °F - 26.6 °F 32% 30.11 in 10.0 mi ESE 19.6 mph 23.0 mph N/A   Scattered Clouds
4:15 PM 56.1 °F - 26.6 °F 32% 30.10 in 10.0 mi ESE 16.1 mph 23.0 mph N/A   Clear
4:35 PM 55.8 °F - 26.4 °F 32% 30.10 in 10.0 mi ESE 13.8 mph 21.9 mph N/A   Clear
4:55 PM 54.5 °F - 26.4 °F 34% 30.10 in 10.0 mi East 18.4 mph 25.3 mph N/A   Scattered Clouds
5:15 PM 53.1 °F - 25.7 °F 35% 30.10 in 10.0 mi ESE 17.3 mph - N/A   Scattered Clouds
5:35 PM 52.3 °F - 25.5 °F 35% 30.10 in 10.0 mi ESE 21.9 mph 25.3 mph N/A   Clear
5:55 PM 50.2 °F - 25.2 °F 38% 30.11 in 10.0 mi ESE 18.4 mph 24.2 mph N/A   Scattered Clouds
6:15 PM 49.5 °F - 25.3 °F 39% 30.11 in 10.0 mi ESE 20.7 mph - N/A   Mostly Cloudy
6:55 PM 48.2 °F - 24.8 °F 40% 30.12 in 10.0 mi ESE 20.7 mph 24.2 mph N/A   Mostly Cloudy
7:15 PM 48.2 °F - 24.8 °F 40% 30.12 in 10.0 mi ESE 18.4 mph 25.3 mph N/A   Mostly Cloudy
7:35 PM 48.2 °F - 24.8 °F 40% 30.14 in 10.0 mi ESE 19.6 mph 26.5 mph N/A   Overcast
7:55 PM 47.5 °F - 24.8 °F 41% 30.14 in 10.0 mi ESE 15.0 mph 24.2 mph N/A   Overcast
8:15 PM 47.5 °F - 24.8 °F 41% 30.15 in 10.0 mi ESE 16.1 mph 23.0 mph N/A   Overcast
8:35 PM 47.3 °F - 24.8 °F 41% 30.15 in 10.0 mi ESE 16.1 mph 20.7 mph N/A   Overcast
8:55 PM 46.8 °F - 25.2 °F 43% 30.16 in 10.0 mi ESE 12.7 mph - N/A   Overcast
9:15 PM 46.6 °F - 25.3 °F 43% 30.17 in 10.0 mi ESE 12.7 mph - N/A   Overcast
9:35 PM 45.5 °F 41.3 °F 27.9 °F 50% 30.18 in 10.0 mi East 8.1 mph - N/A Rain Light Rain
9:55 PM 45.7 °F 39.5 °F 26.4 °F 47% 30.19 in 10.0 mi ESE 13.8 mph 21.9 mph N/A   Overcast
10:15 PM 42.4 °F 34.4 °F 31.3 °F 65% 30.18 in 10.0 mi SE 17.3 mph 27.6 mph N/A   Light Drizzle
10:35 PM 41.2 °F 34.1 °F 32.7 °F 72% 30.18 in 10.0 mi ESE 12.7 mph 21.9 mph N/A   Overcast
10:55 PM 41.0 °F 33.1 °F 32.2 °F 71% 30.18 in 10.0 mi ESE 15.0 mph 19.6 mph N/A   Overcast
11:15 PM 41.0 °F 32.8 °F 31.8 °F 70% 30.18 in 10.0 mi ESE 16.1 mph - N/A   Overcast
11:35 PM 40.3 °F 33.9 °F 31.6 °F 71% 30.18 in 10.0 mi East 10.4 mph 17.3 mph N/A   Overcast
11:55 PM 40.3 °F 33.4 °F 31.3 °F 70% 30.18 in 10.0 mi ESE 11.5 mph - N/A   Overcast